Content
SEND FEEDBACK

Daily
Averages
Monthly
Summary
Thailand

PHUKET, THAILAND


Home > Asia > Thailand
Elevation: 33 feet     Latitude: 08 07N     Longitude: 098 19E

WEATHER
 
SELECT A DAY
Number of Records: 236,156;   Date Range: 7/1/96 - 12/18/14
 
SHARE

PRINT THIS DATA

[ ← Previous Day ]
WEATHER ALMANAC - FEBRUARY 8, 2013
[ Next Day → ]
[ °C ]   °F
Weather ElementAverageHighLow
Temperature83.5 °F93.2 °F (2:00 pm)75.2 °F (4:00 am)
Dewpoint72 °F77 °F (1:00 am)66.2 °F (4:00 pm)
Humidity70.6 %95 % (7:00 am)43 % (4:00 pm)
Barometer29.81 in29.89 in (11:30 pm)29.74 in (3:00 pm)
Wind Speed5.4 mph15 mph (2:00 pm)
Weather ElementAverage
Visibility5.7 mi
Wind DirectionENE (63.1 °)

Weather ElementTotal
Precipitation---
Cooling Degree Days19.2 (Base 65)
Growing Degree Days34.2 (Base 50)
Averaged from 50 records on February 8, 2013
WEATHER CONDITIONS BREAKOUT
WIND DIRECTION BREAKOUT
WEATHER BY HOUR - FEBRUARY 8, 2013
[ °C ]   °F
Local TimeTemperatureDewpointHumidityBarometerVisibilityWind DirectionWind SpeedGust SpeedPrecipitationEventsConditions
12:30 AM80.6 °F75.2 °F84 %29.86 in5.0 miCalmMostly Cloudy
1:00 AM80.0 °F77.0 °F86 %29.82 in5.0 miCalmMist
1:00 AM78.8 °F75.2 °F89 %29.86 in5.0 miVariable1.2 mphMostly Cloudy
1:30 AM78.8 °F75.2 °F89 %29.83 in5.0 miCalmMostly Cloudy
2:00 AM78.8 °F73.4 °F83 %29.83 in5.0 miNNE (30°)3.5 mphMostly Cloudy
2:30 AM77.0 °F73.4 °F89 %29.83 in5.0 miCalmMostly Cloudy
3:00 AM77.0 °F73.4 °F89 %29.83 in5.0 miCalmMostly Cloudy
3:30 AM77.0 °F73.4 °F89 %29.80 in5.0 miCalmMostly Cloudy
4:00 AM75.2 °F73.4 °F94 %29.80 in5.0 miCalmMostly Cloudy
4:30 AM75.2 °F73.4 °F94 %29.80 in5.0 miCalmPartly Cloudy
5:00 AM75.2 °F73.4 °F94 %29.80 in5.0 miCalmMostly Cloudy
5:30 AM75.2 °F73.4 °F94 %29.80 in4.3 miCalmMostly Cloudy
6:00 AM75.2 °F73.4 °F94 %29.80 in4.3 miCalmMostly Cloudy
6:30 AM75.2 °F73.4 °F94 %29.83 in4.3 miCalmScattered Clouds
7:00 AM76.0 °F75.0 °F95 %29.80 in5.0 miESE (110°)3.5 mphMist
7:00 AM75.2 °F73.4 °F94 %29.83 in4.3 miVariable2.3 mphMostly Cloudy
7:30 AM77.0 °F73.4 °F89 %29.83 in5.0 miVariable2.3 mphMostly Cloudy
8:00 AM78.8 °F75.2 °F89 %29.83 in5.0 miEast (100°)3.5 mphMostly Cloudy
8:30 AM84.2 °F75.2 °F74 %29.83 in6.2 miEast (100°)9.2 mphPartly Cloudy
9:00 AM84.2 °F75.2 °F74 %29.83 in6.2 miESE (110°)12.7 mphPartly Cloudy
9:30 AM86.0 °F73.4 °F66 %29.83 in6.2 miEast (90°)11.5 mphScattered Clouds
10:00 AM86.0 °F71.6 °F62 %29.86 in6.2 miEast (90°)12.7 mphScattered Clouds
10:30 AM87.8 °F71.6 °F58 %29.83 in6.2 miEast (80°)9.2 mphScattered Clouds
11:00 AM87.8 °F71.6 °F58 %29.83 in6.2 miEast (100°)11.5 mphScattered Clouds
11:30 AM89.6 °F69.8 °F52 %29.83 in6.2 miEast (80°)11.5 mphScattered Clouds
12:30 PM89.6 °F71.6 °F55 %29.80 in6.2 miEast (90°)12.7 mphScattered Clouds
1:00 PM90.0 °F72.0 °F47 %29.82 in6.0 miEast (90°)5.8 mphScattered Clouds
1:00 PM91.4 °F69.8 °F49 %29.80 in6.2 miEast (100°)11.5 mphScattered Clouds
1:30 PM91.4 °F69.8 °F49 %29.80 in6.2 miEast (90°)9.2 mphScattered Clouds
2:00 PM93.2 °F68.0 °F44 %29.77 in6.2 miEast (90°)15.0 mphScattered Clouds
2:30 PM93.2 °F68.0 °F44 %29.77 in6.2 miEast (90°)12.7 mphScattered Clouds
3:00 PM93.2 °F68.0 °F44 %29.74 in6.2 miENE (70°)9.2 mphScattered Clouds
3:30 PM93.2 °F68.0 °F44 %29.74 in6.2 miEast (90°)11.5 mphScattered Clouds
4:00 PM91.4 °F66.2 °F43 %29.74 in6.2 miEast (100°)11.5 mphScattered Clouds
4:30 PM91.4 °F66.2 °F43 %29.74 in6.2 miESE (120°)10.4 mphScattered Clouds
5:00 PM91.4 °F68.0 °F46 %29.74 in6.2 miEast (90°)10.4 mphScattered Clouds
5:30 PM89.6 °F68.0 °F49 %29.74 in6.2 miESE (120°)6.9 mphScattered Clouds
6:00 PM87.8 °F66.2 °F49 %29.74 in6.2 miESE (120°)5.8 mphScattered Clouds
6:30 PM86.0 °F69.8 °F58 %29.77 in6.2 miESE (110°)5.8 mphMostly Cloudy
7:00 PM88.0 °F72.0 °F50 %29.75 in6.0 miCalmScattered Clouds
7:00 PM86.0 °F69.8 °F58 %29.77 in6.2 miESE (110°)6.9 mphMostly Cloudy
7:30 PM84.2 °F69.8 °F62 %29.77 in6.2 miEast (100°)3.5 mphMostly Cloudy
8:00 PM82.4 °F71.6 °F70 %29.80 in6.2 miENE (70°)3.5 mphScattered Clouds
8:30 PM78.8 °F73.4 °F83 %29.83 in6.2 miCalmScattered Clouds
9:00 PM82.4 °F73.4 °F74 %29.83 in6.2 miNNE (20°)4.6 mphScattered Clouds
9:30 PM80.6 °F73.4 °F79 %29.86 in6.2 miNE (40°)4.6 mphScattered Clouds
10:00 PM82.4 °F73.4 °F74 %29.86 in6.2 miNE (40°)3.5 mphScattered Clouds
10:30 PM80.6 °F73.4 °F79 %29.86 in6.2 miENE (60°)3.5 mphMostly Cloudy
11:00 PM80.6 °F75.2 °F84 %29.86 in6.2 miVariable2.3 mphScattered Clouds
11:30 PM82.4 °F75.2 °F79 %29.89 in6.2 miNNW (330°)4.6 mphScattered Clouds
Hourly data recorded from VTSP, located miles away from Phuket, Thailand







STORIES FROM OUR PARTNERS